MIDAS 3 DEB, 188

Orbit data source: Space-Track

MIDAS 3 DEB, 188 is space debris in LEO originally from a launch on Wed, 12 Jul 1961 UTC launched from the Air Force Western Test Range (AFWTR). Debris objects in space refer to the collection of defunct objects orbiting the Earth. Examples of debris include non-operational satellites, rocket bodies, and fragments generated from explosions, collisions, or faulty payload assembly.

Loading next visibility...
Identifier
188, 1961-018C
Orbit
LEO
Country
Flag of USUS
Related business
Manufacturer
Unknown
Mission
Spacecraft
Bus & Motor
Unknown
Mass
~10 kg wet, ~10 kg dry
Launch date (UTC)
1961-07-12 (64 years ago)
Launch vehicle
Unknown
Launch site
Air Force Western Test Range (AFWTR)
Object type
Payload
Rocket body
Debris
Shape & HBR
Unknown shape, 1.1 m
Radar Cross Section
Medium (>0.1 m² and <1 m²)

Expand to show TLE details & history
Last TLE update: 1 day ago

TLE from 1 day ago
0 MIDAS 3 DEB
1 00188U 61018C   25309.65340364 -.00000017  00000-0 -60358-2 0  9997
2 00188  91.1110 198.3733 0123483 269.0720  89.6005  8.93829723 98223
Epoch: 2025-11-05T15:40Z
TLE epoch observation values (Epoch: 2025-11-05T15:40:54.074Z)
Latitude
0.00007°
Longitude
-81.97499°
Altitude
3,432.415 km
Speed
6.375 km/s
True Right ascension
13h 13m 29s
True Declination
0° 00' 00"
Sunlit
Object was in daylight at epoch
Visualization orbit readout
Latitude
Unknown
Longitude
Unknown
Altitude
Unknown
Speed
Unknown
Apparent Right ascension
Unknown
Apparent Declination
Unknown
Sunlit
N/A
Visualization observer readout
Local Sidereal Time
16:14:51
Azimuth
Unknown
Elevation
Unknown
Doppler factor
Unknown
Orbital elements
Apogee altitude
3,548.364 km
Perigee altitude
3,306.204 km
Semi-major axis
9,805.421 km
Eccentricity
0.01235
Inclination
91.111°
RAAN
198.3733°
Arg. of periapsis
269.072°
True anomaly
91.01549°
Mean anomaly
89.6005°
Eccentric anomaly
90.308°
Mean motion
2.23534 °/min
Orbital period
161.05 mins
BSTAR
-0.0060358
Loading maneuver chart data...
Computing Atmospheric mass density...
Loading historical data...
Loading historical data...
Loading historical data...
Loading historical data...
Loading historical data...
Loading historical data...
Loading historical data...
Other satellites on launch #18 in the year 1961 (1961-07-12 UTC)

Documentation

Showing up to 5 results
|